Home   Weather   Narvik   Past weeks

Flag for Norway Past Weather in Narvik, Norway — Yesterday and Last 2 Weeks

Now
39 °F

Passing clouds.


Feels Like: 35 °F
Forecast: 20 / 35 °F
Wind: 6 mph from South

Location: Evenes

Current Time: Apr 25, 2017 at 12:44:22 pm

Latest Report: Apr 25, 2017 at 11:50 am


Visibility: N/A

Pressure: 29.83 "Hg

Humidity: 48%

Dew Point: 21 °F

Location of NarvikLocation

Past Weather in Narvik — Graph

°F

Narvik Temperature Yesterday

Maximum temperature yesterday: 41 °F (at 12:50 pm)
Minimum temperature yesterday: 25 °F (at 4:50 am)
Average temperature yesterday: 33 °F

High & Low Weather Summary for the Past Weeks

 TemperatureHumidityPressure
High41 °F (Apr 20, 1:50 pm)100% (Apr 10, 10:50 am)30.39 "Hg (Apr 10, 10:50 am)
Low16 °F (Apr 16, 3:50 am)35% (Apr 15, 4:50 pm)28.97 "Hg (Apr 21, 4:50 am)
Average32 °F70%29.77 "Hg
* Reported Apr 10 10:50 am — Apr 25 10:50 am, Narvik, Weather by CustomWeather, © 2017

Note: Actual official high and low records may vary slightly from our data, if they occured in-between our weather recording intervals... More about our weather records

Advertising

Narvik Weather History for the Previous 24 Hours

Scroll right to see more
 ConditionsComfort  
Time TempWeatherWind HumidityBarometerVisibility
10:50 am
Tue, Apr 25
37 °FSunny.3 mph48%29.83 "Hg10 mi
9:50 am37 °FSunny.2 mph48%29.83 "Hg10 mi
8:50 am36 °FSunny.No wind56%29.83 "Hg10 mi
7:50 am30 °FClear.No wind75%29.83 "HgN/A
6:50 am27 °FSunny.No wind80%29.83 "Hg10 mi
6:20 am23 °FSunny.No wind86%29.83 "Hg10 mi
5:50 am23 °FSunny.No wind86%29.83 "Hg10 mi
5:20 am23 °FCold.1 mph93%29.83 "HgN/A
4:50 am21 °FCold.2 mph93%29.83 "HgN/A
4:20 am21 °FCold.2 mph93%29.83 "HgN/A
3:50 am21 °FCold.2 mph93%29.80 "HgN/A
3:20 am23 °FCold.3 mph93%29.80 "HgN/A
2:50 am23 °FClear.2 mph93%29.80 "Hg10 mi
1:50 am25 °FClear.1 mph86%29.80 "Hg10 mi
12:50 am27 °FClear.No wind80%29.80 "Hg10 mi
11:50 pm
Mon, Apr 24
28 °FClear.1 mph74%29.80 "Hg10 mi
10:50 pm30 °FClear.No wind75%29.80 "Hg10 mi
9:50 pm34 °FClear.3 mph65%29.80 "Hg10 mi
8:50 pm34 °FSunny.7 mph65%29.77 "Hg10 mi
7:50 pm37 °FSunny.8 mph56%29.77 "Hg10 mi
6:50 pm39 °FSunny.10 mph52%29.77 "Hg10 mi
5:50 pm39 °FSunny.8 mph52%29.74 "Hg10 mi
4:50 pm39 °FPassing clouds.8 mph56%29.74 "HgN/A
3:50 pm41 °FPassing clouds.8 mph53%29.74 "HgN/A
2:50 pm41 °FPassing clouds.8 mph49%29.74 "HgN/A
1:50 pm41 °FSunny.3 mph42%29.74 "Hg10 mi
12:50 pm41 °FSunny.3 mph42%29.74 "Hg10 mi
Weather by CustomWeather, © 2017

See weather overviewHow to use our weather pages